[keps] orb10280.amsat
Ray Hoad
ray.hoad at mypbmail.com
Thu Oct 7 20:01:15 PDT 2010
SB KEPS @ AMSAT $ORB10280.O
Orbital Elements 10280.OSCAR
HR AMSAT ORBITAL ELEMENTS FOR OSCAR SATELLITES
FROM WA5QGD FORT WORTH,TX October 7, 2010
BID: ORB10280.O
TO ALL RADIO AMATEURS BT
Satellite: AO-07
Catalog number: 07530
Epoch time: 10280.88907382
Element set: 896
Inclination: 101.4006 deg
RA of node: 292.3775 deg
Eccentricity: 0.0012233
Arg of perigee: 052.8416 deg
Mean anomaly: 307.3772 deg
Mean motion: 12.53579688 rev/day
Decay rate: -2.7e-07 rev/day^2
Epoch rev: 64257
Checksum: 313
Satellite: FO-29
Catalog number: 24278
Epoch time: 10279.91936900
Element set: 0441
Inclination: 098.5172 deg
RA of node: 093.6288 deg
Eccentricity: 0.0350488
Arg of perigee: 193.8736 deg
Mean anomaly: 165.2598 deg
Mean motion: 13.52954027 rev/day
Decay rate: 9.9e-07 rev/day^2
Epoch rev: 69821
Checksum: 361
Satellite: SO-33
Catalog number: 25509
Epoch time: 10279.24994438
Element set: 0809
Inclination: 031.4325 deg
RA of node: 240.4557 deg
Eccentricity: 0.0354035
Arg of perigee: 181.0691 deg
Mean anomaly: 178.9144 deg
Mean motion: 14.28332937 rev/day
Decay rate: 1.33e-06 rev/day^2
Epoch rev: 62394
Checksum: 314
Satellite: RS-22
Catalog number: 27939
Epoch time: 10280.66600279
Element set: 610
Inclination: 097.8745 deg
RA of node: 141.2821 deg
Eccentricity: 0.0014637
Arg of perigee: 066.1119 deg
Mean anomaly: 294.1635 deg
Mean motion: 14.63459569 rev/day
Decay rate: 9.4e-07 rev/day^2
Epoch rev: 37540
Checksum: 317
Satellite: VO-52
Catalog number: 28650
Epoch time: 10279.55359253
Element set: 0616
Inclination: 097.6807 deg
RA of node: 328.5698 deg
Eccentricity: 0.0025820
Arg of perigee: 272.4978 deg
Mean anomaly: 087.3285 deg
Mean motion: 14.81816809 rev/day
Decay rate: -2.16e-06 rev/day^2
Epoch rev: 29318
Checksum: 353
Satellite: SO-67
Catalog number: 35870
Epoch time: 10280.74906446
Element set: 172
Inclination: 097.3200 deg
RA of node: 326.8348 deg
Eccentricity: 0.0004629
Arg of perigee: 070.8632 deg
Mean anomaly: 039.5840 deg
Mean motion: 15.21090764 rev/day
Decay rate: 6.36e-06 rev/day^2
Epoch rev: 5856
Checksum: 312
Satellite: HO-68
Catalog number: 36122
Epoch time: 10280.74017231
Element set: 735
Inclination: 100.4563 deg
RA of node: 339.9646 deg
Eccentricity: 0.0007850
Arg of perigee: 081.0027 deg
Mean anomaly: 279.1975 deg
Mean motion: 13.16282043 rev/day
Decay rate: -4.5e-07 rev/day^2
Epoch rev: 3902
Checksum: 281
/EX
SB KEPS @ AMSAT $ORB10280.D
Orbital Elements 10280.MICROS
HR AMSAT ORBITAL ELEMENTS FOR THE MICROSATS
FROM WA5QGD FORT WORTH,TX October 7, 2010
BID: ORB10280.D
TO ALL RADIO AMATEURS BT
Satellite: UO-11
Catalog number: 14781
Epoch time: 10280.73917600
Element set: 358
Inclination: 098.0430 deg
RA of node: 332.7420 deg
Eccentricity: 0.0008161
Arg of perigee: 232.0187 deg
Mean anomaly: 128.0259 deg
Mean motion: 14.79841792 rev/day
Decay rate: 1.51e-06 rev/day^2
Epoch rev: 42845
Checksum: 286
Satellite: AO-16
Catalog number: 20439
Epoch time: 10280.76396176
Element set: 12
Inclination: 098.3458 deg
RA of node: 234.3145 deg
Eccentricity: 0.0010535
Arg of perigee: 187.6410 deg
Mean anomaly: 172.4614 deg
Mean motion: 14.31877106 rev/day
Decay rate: 3.8e-07 rev/day^2
Epoch rev: 8149
Checksum: 291
Satellite: LO-19
Catalog number: 20442
Epoch time: 10279.76551588
Element set: 0921
Inclination: 098.3084 deg
RA of node: 238.7089 deg
Eccentricity: 0.0011918
Arg of perigee: 184.9906 deg
Mean anomaly: 175.1161 deg
Mean motion: 14.32106221 rev/day
Decay rate: -9.0e-08 rev/day^2
Epoch rev: 08152
Checksum: 306
Satellite: AO-27
Catalog number: 22825
Epoch time: 10279.73971884
Element set: 0645
Inclination: 098.4961 deg
RA of node: 224.8612 deg
Eccentricity: 0.0007851
Arg of perigee: 306.1736 deg
Mean anomaly: 053.8722 deg
Mean motion: 14.29310355 rev/day
Decay rate: 1.7e-07 rev/day^2
Epoch rev: 88798
Checksum: 337
Satellite: IO-26
Catalog number: 22826
Epoch time: 10280.83502685
Element set: 382
Inclination: 098.4910 deg
RA of node: 226.4902 deg
Eccentricity: 0.0008177
Arg of perigee: 296.4816 deg
Mean anomaly: 063.5533 deg
Mean motion: 14.29568386 rev/day
Decay rate: 4.6e-07 rev/day^2
Epoch rev: 88825
Checksum: 333
Satellite: GO-32
Catalog number: 25397
Epoch time: 10279.67531697
Element set: 0301
Inclination: 098.3172 deg
RA of node: 281.0056 deg
Eccentricity: 0.0000661
Arg of perigee: 355.1919 deg
Mean anomaly: 004.9245 deg
Mean motion: 14.23186524 rev/day
Decay rate: 7.0e-07 rev/day^2
Epoch rev: 63590
Checksum: 297
Satellite: NO-44
Catalog number: 26931
Epoch time: 10280.49014854
Element set: 576
Inclination: 067.0521 deg
RA of node: 274.6292 deg
Eccentricity: 0.0005545
Arg of perigee: 273.8661 deg
Mean anomaly: 086.1799 deg
Mean motion: 14.29615399 rev/day
Decay rate: 3.09e-06 rev/day^2
Epoch rev: 47080
Checksum: 328
Satellite: SO-50
Catalog number: 27607
Epoch time: 10280.81954548
Element set: 287
Inclination: 064.5595 deg
RA of node: 014.3964 deg
Eccentricity: 0.0042820
Arg of perigee: 029.3854 deg
Mean anomaly: 330.9651 deg
Mean motion: 14.71584406 rev/day
Decay rate: -2.7e-07 rev/day^2
Epoch rev: 41895
Checksum: 322
Satellite: CO-55
Catalog number: 27844
Epoch time: 10279.58010076
Element set: 0953
Inclination: 098.7112 deg
RA of node: 286.9661 deg
Eccentricity: 0.0009102
Arg of perigee: 207.3664 deg
Mean anomaly: 152.7035 deg
Mean motion: 14.20734523 rev/day
Decay rate: 7.5e-07 rev/day^2
Epoch rev: 37690
Checksum: 306
Satellite: CO-57
Catalog number: 27848
Epoch time: 10279.55558340
Element set: 0898
Inclination: 098.7160 deg
RA of node: 286.0576 deg
Eccentricity: 0.0008960
Arg of perigee: 212.2977 deg
Mean anomaly: 147.7671 deg
Mean motion: 14.20524905 rev/day
Decay rate: 6.8e-07 rev/day^2
Epoch rev: 37685
Checksum: 357
Satellite: AO-51
Catalog number: 28375
Epoch time: 10279.47984200
Element set: 0792
Inclination: 098.0721 deg
RA of node: 266.6984 deg
Eccentricity: 0.0084467
Arg of perigee: 118.9287 deg
Mean anomaly: 242.0414 deg
Mean motion: 14.40701667 rev/day
Decay rate: 3.5e-07 rev/day^2
Epoch rev: 32953
Checksum: 329
Satellite: GENESAT1
Catalog number: 29655
Epoch time: 10216.61700559
Element set: 226
Inclination: 040.0059 deg
RA of node: 067.3006 deg
Eccentricity: 0.0005079
Arg of perigee: 297.8744 deg
Mean anomaly: 064.7087 deg
Mean motion: 16.44862838 rev/day
Decay rate: 1.0637092e-01 rev/day^2
Epoch rev: 20777
Checksum: 320
Satellite: CP3
Catalog number: 31129
Epoch time: 10280.65657542
Element set: 692
Inclination: 097.9291 deg
RA of node: 314.1515 deg
Eccentricity: 0.0101132
Arg of perigee: 244.6836 deg
Mean anomaly: 114.3850 deg
Mean motion: 14.52312734 rev/day
Decay rate: 6.4e-07 rev/day^2
Epoch rev: 18418
Checksum: 281
Satellite: CO-65
Catalog number: 32785
Epoch time: 10280.67197885
Element set: 803
Inclination: 097.8847 deg
RA of node: 343.9723 deg
Eccentricity: 0.0013921
Arg of perigee: 281.1177 deg
Mean anomaly: 078.8496 deg
Mean motion: 14.81728519 rev/day
Decay rate: 1.00e-06 rev/day^2
Epoch rev: 13214
Checksum: 336
Satellite: KKS-1
Catalog number: 33493
Epoch time: 10280.74178262
Element set: 920
Inclination: 098.0980 deg
RA of node: 041.2791 deg
Eccentricity: 0.0020817
Arg of perigee: 134.7531 deg
Mean anomaly: 225.5387 deg
Mean motion: 14.81132234 rev/day
Decay rate: 6.28e-06 rev/day^2
Epoch rev: 9214
Checksum: 285
Satellite: SOHLA-1
Catalog number: 33496
Epoch time: 10279.42135948
Element set: 0224
Inclination: 098.0658 deg
RA of node: 027.1000 deg
Eccentricity: 0.0006113
Arg of perigee: 201.2386 deg
Mean anomaly: 158.8566 deg
Mean motion: 14.69520736 rev/day
Decay rate: 7.6e-07 rev/day^2
Epoch rev: 09121
Checksum: 287
Satellite: TISAT-1
Catalog number: 36799
Epoch time: 10280.74609755
Element set: 193
Inclination: 098.1374 deg
RA of node: 341.1256 deg
Eccentricity: 0.0016024
Arg of perigee: 016.5329 deg
Mean anomaly: 343.6404 deg
Mean motion: 14.80186402 rev/day
Decay rate: 3.62e-06 rev/day^2
Epoch rev: 1296
Checksum: 292
Satellite: STUDSAT
Catalog number: 36801
Epoch time: 10280.84598933
Element set: 74
Inclination: 098.1404 deg
RA of node: 341.1480 deg
Eccentricity: 0.0014364
Arg of perigee: 004.6264 deg
Mean anomaly: 355.5056 deg
Mean motion: 14.79693770 rev/day
Decay rate: 9.44e-06 rev/day^2
Epoch rev: 1297
Checksum: 303
/EX
SB KEPS @ AMSAT $ORB10280.W
Orbital Elements 10280.WEATHER
HR AMSAT ORBITAL ELEMENTS FOR WEATHER SATELLITES
FROM WA5QGD FORT WORTH,TX October 7, 2010
BID: ORB10280.W
TO ALL RADIO AMATEURS BT
Satellite: NOAA-10
Catalog number: 16969
Epoch time: 10279.60579992
Element set: 0230
Inclination: 098.6493 deg
RA of node: 307.4858 deg
Eccentricity: 0.0011394
Arg of perigee: 246.3570 deg
Mean anomaly: 113.6421 deg
Mean motion: 14.27429221 rev/day
Decay rate: 8.5e-07 rev/day^2
Epoch rev: 25147
Checksum: 317
Satellite: NOAA-11
Catalog number: 19531
Epoch time: 10279.26179463
Element set: 0238
Inclination: 098.7664 deg
RA of node: 006.3797 deg
Eccentricity: 0.0011100
Arg of perigee: 187.8961 deg
Mean anomaly: 172.2031 deg
Mean motion: 14.14936312 rev/day
Decay rate: -2.73e-06 rev/day^2
Epoch rev: 13684
Checksum: 301
Satellite: NOAA-12
Catalog number: 21263
Epoch time: 10279.94239149
Element set: 0733
Inclination: 098.7653 deg
RA of node: 293.0865 deg
Eccentricity: 0.0012069
Arg of perigee: 198.4966 deg
Mean anomaly: 161.5787 deg
Mean motion: 14.25657614 rev/day
Decay rate: 4.9e-07 rev/day^2
Epoch rev: 00832
Checksum: 335
Satellite: MET-3/5
Catalog number: 21655
Epoch time: 10279.62651367
Element set: 0932
Inclination: 082.5552 deg
RA of node: 229.8884 deg
Eccentricity: 0.0014997
Arg of perigee: 071.9842 deg
Mean anomaly: 288.2901 deg
Mean motion: 13.17022604 rev/day
Decay rate: 5.1e-07 rev/day^2
Epoch rev: 92034
Checksum: 316
Satellite: MET-2/21
Catalog number: 22782
Epoch time: 10279.29278918
Element set: 0904
Inclination: 082.5496 deg
RA of node: 164.3103 deg
Eccentricity: 0.0023844
Arg of perigee: 090.5074 deg
Mean anomaly: 269.8813 deg
Mean motion: 13.83649399 rev/day
Decay rate: -2.2e-07 rev/day^2
Epoch rev: 86344
Checksum: 335
